SCP
0 0 0 0 0 0 0 0 0 0 0 0 0 0 0 0 0 0 -0 -0 0 0 -0 0 -0 0 0 0 0 0 0 0 0 0 0 0 0 0 0 0 0 0 0 0
0 0 0 0 0 0 0 0 0 0 0 0 0 0 0 0 -0 -0 -0 -0 0 0 0 0 0 -0 0 0 0 0 0 -0 0 0 -0 0 0 0 0 0 0 0 0 0
0 0 0 0 0 0 0 0 0 0 0 0 0 0 0 0 0 -0 0 0 0 0 0 0 0 0 0 0 0 0 0 -0 -0 -0 -0 0 0 0 0 0 0 0 0 0
0 0 0 0 0 0 0 0 0 0 0 0 0 0 0 0 0 0 0 0 0 0 0 0 0 0 0 0 0 0 -0 -0 -0 0 0 0 -0 0 0 0 0 0 0 0
0 0 0 0 0 0 0 0 0 0 0 0 0 0 0 0 0 0 0 0 1 0 0 0 0 0 0 0 0 0 0 -0 0 0 0 0 0 0 0 0 0 0 0 0
0 0 0 0 0 0 0 0 0 0 0 0 0 0 0 0 0 0 0 0 1 0 0 0 0 0 0 0 0 0 0 0 0 0 0 0 0 0 0 0 0 0 0 0
0 0 0 0 0 0 0 0 0 0 0 0 0 0 0 0 0 0 0 0 0 0 0 0 0 0 0 0 0 0 0 0 0 0 0 0 0 0 0 0 0 0 0 0
0 0 0 0 0 0 0 0 0 0 0 0 0 0 0 0 0 0 0 0 0 0 0 0 0 0 0 0 0 0 0 0 0 0 0 0 0 0 0 0 0 0 0 0
0 0 0 0 0 0 0 0 0 0 0 0 0 0 0 0 0 0 0 0 0 0 0 0 0 0 0 0 0 0 0 0 0 0 0 0 0 0 0 0 0 0 0 0
0 0 0 0 0 0 0 0 0 0 0 0 -0 0 0 0 0 0 0 0 0 0 0 0 0 0 0 0 0 0 0 0 0 0 0 0 0 0 0 0 0 0 0 0
0 0 0 0 0 0 0 0 0 0 0 0 0 0 0 0 0 0 0 0 0 0 0 0 0 0 0 0 0 0 0 0 0 0 0 0 0 0 0 0 0 0 0 0
0 0 0 0 0 0 0 0 0 0 0 0 0 0 0 0 0 0 0 0 0 0 0 0 0 0 0 0 0 0 0 0 0 0 0 0 0 0 0 0 0 0 0 0
0 0 0 0 0 0 0 0 0 0 0 0 0 0 0 0 0 0 0 -0 0 0 0 0 0 0 0 0 0 0 0 0 0 0 0 0 0 0 0 0 0 0 0 0
0 0 0 0 0 0 0 0 0 0 0 0 0 0 0 0 0 0 -0 -0 0 0 0 0 0 0 0 0 0 0 0 0 0 0 0 0 0 0 0 0 0 0 0 0
0 0 0 0 0 0 0 0 0 0 0 0 0 0 0 0 0 -0 -0 0 0 0 0 0 0 0 0 0 0 0 0 0 0 0 0 0 0 0 0 0 0 0 0 0
0 0 0 -0 -0 -0 0 0 0 0 0 0 0 0 0 0 0 0 0 0 0 0 0 0 0 0 0 0 0 0 0 0 0 0 0 0 0 0 0 0 0 0 0 0
-0 0 -0 -0 -0 0 0 0 0 0 0 0 0 0 0 0 0 0 0 0 0 0 0 0 0 0 0 0 0 0 0 0 0 0 0 0 0 0 0 0 0 0 0 0
-0 -0 -0 -0 0 0 0 0 0 0 0 0 0 0 0 0 0 0 0 0 0 0 0 0 0 0 0 0 0 0 0 0 0 0 0 0 0 0 0 0 0 0 0 0
-0 0 0 0 0 0 0 0 0 0 0 0 0 0 0 0 0 0 0 0 0 0 0 0 0 0 0 0 0 0 0 0 0 0 0 0 0 0 0 0 0 0 0 0
-0 0 0 0 0 0 0 0 0 0 0 0 0 0 0 0 0 0 0 0 0 0 0 0 0 0 0 0 0 0 0 0 0 0 0 0 0 0 -0 -0 0 0 0 0
0 0 0 0 0 0 0 0 0 -0 -0 0 0 0 0 -0 -0 0 0 0 0 0 0 0 0 0 0 0 0 0 -0 -0 0 -0 -0 0 0 0 0 0 0 0 0 0
-0 -0 0 -0 0 0 0 0 0 0 0 0 0 0 0 -0 0 0 0 0 0 0 0 0 0 0 0 0 0 0 0 -0 0 0 0 0 0 0 0 0 0 0 0 0
-0 0 -0 -0 0 0 0 0 0 -0 -0 0 0 0 -0 0 0 0 0 0 0 0 0 0 0 0 0 0 0 0 0 0 0 -0 0 0 0 0 0 0 0 0 0 0
0 -0 -0 0 -0 0 0 0 0 0 0 0 -0 -0 -0 0 -0 -0 0 0 0 0 0 0 0 0 0 0 0 0 0 0 0 0 0 0 0 0 0 0 0 0 0 0
-0 -0 -0 0 -0 0 -0 0 0 0 0 0 -0 0 -0 0 -0 0 0 0 0 0 0 0 0 0 0 0 0 0 0 0 0 0 0 0 0 0 0 0 0 0 0 0
-0 -0 -0 0 -0 0 0 0 0 0 0 0 0 0 0 0 0 0 0 0 0 0 0 0 0 0 0 0 0 0 0 0 0 0 0 0 0 0 0 0 0 0 0 0
-0 -0 0 0 -0 -0 0 0 0 0 0 0 0 0 0 0 0 0 0 0 0 0 0 0 0 0 0 0 0 0 0 0 0 0 0 0 0 0 0 0 0 0 0 0
Wind_Speed_500mb
13 12 12 11 21 14 8 11 13 10 16 19 16 19 42 62 60 52 48 46 39 32 29 31 39 43 44 42 46 59 59 62 36 37 54 59 58 57 57 59 58 63 58 54
7 3 10 10 19 16 7 9 4 9 13 7 28 23 26 54 64 59 55 50 45 32 28 28 28 27 26 31 37 51 55 61 58 50 45 60 59 57 55 58 56 61 66 63
7 8 4 4 15 17 11 13 16 11 15 11 15 20 35 49 64 74 65 50 41 32 24 19 16 15 18 22 28 35 39 40 47 58 50 42 47 55 67 64 56 56 56 56
5 5 8 15 6 9 14 17 14 10 12 12 17 34 70 67 77 73 63 49 43 38 30 20 13 8 14 22 23 23 25 27 30 34 35 49 48 46 58 67 69 62 59 63
6 8 9 11 5 14 15 13 3 11 12 3 12 23 25 85 79 72 64 53 51 43 32 22 14 13 11 13 13 11 9 11 20 21 22 30 45 53 59 67 63 58 58 65
7 8 12 9 16 13 8 8 5 5 6 12 30 9 12 77 86 76 64 55 57 47 35 24 21 22 19 15 14 15 16 15 10 9 14 24 27 34 42 51 55 60 63 62
10 9 11 12 12 18 12 12 5 5 9 24 7 20 30 74 80 75 71 69 58 47 34 25 21 23 23 22 22 22 20 18 16 16 16 17 22 27 38 41 41 46 49 58
3 4 10 18 7 9 6 17 15 8 19 16 10 13 20 74 75 81 81 71 56 46 36 25 21 18 17 18 15 18 20 23 24 23 24 27 24 23 22 30 35 33 37 42
11 8 7 11 9 11 8 10 10 19 18 12 19 9 42 74 82 91 85 72 57 45 37 29 19 13 9 9 10 16 15 16 14 14 14 16 20 22 24 25 26 27 27 33
9 6 9 20 20 14 19 20 23 18 13 9 16 21 57 74 97 95 82 67 56 47 38 31 21 14 8 3 10 8 13 16 18 15 18 14 14 13 16 18 19 23 29 33
11 16 26 10 2 11 24 27 14 14 13 9 11 40 57 59 80 90 78 66 55 47 39 29 25 17 6 2 1 10 13 11 19 19 16 9 3 1 2 5 7 7 3 4
8 14 7 14 14 21 26 25 20 8 24 32 35 53 59 65 56 76 68 61 52 43 35 34 31 20 5 3 6 11 16 15 21 22 17 12 7 4 3 3 5 8 9 12
11 31 31 33 32 28 28 28 23 17 26 43 48 46 53 45 47 40 12 57 49 40 42 40 33 18 9 12 11 14 19 17 19 23 23 18 10 12 10 9 7 9 10 14
54 43 31 35 21 16 19 25 25 25 14 36 38 39 40 43 30 27 68 68 59 47 47 42 31 16 16 19 18 18 21 17 17 19 25 21 17 16 16 16 13 12 11 9
27 24 33 34 33 32 26 27 29 28 27 27 41 32 33 40 59 68 67 71 58 50 44 39 28 19 25 24 20 21 20 16 16 20 27 24 21 19 21 20 18 17 17 15
31 26 28 27 31 21 17 20 34 41 36 38 47 46 37 43 36 36 37 57 48 49 44 38 34 26 24 25 21 20 16 13 16 18 20 20 20 22 22 22 25 24 21 21
31 34 32 31 22 22 29 24 31 39 48 42 43 34 38 37 24 23 28 27 26 34 31 31 30 31 27 23 19 15 12 8 12 18 20 19 20 25 25 23 27 25 22 21
27 29 29 31 37 38 25 34 34 39 52 45 47 43 40 43 21 32 21 18 21 21 24 25 25 23 22 21 18 18 16 11 11 11 14 20 22 22 23 25 25 26 30 31
13 17 22 32 32 34 24 35 30 35 56 58 49 51 57 26 32 15 23 34 28 31 33 31 23 17 18 14 15 24 22 17 13 9 7 10 10 9 12 14 14 15 16 18
13 12 17 24 23 20 27 36 36 34 58 58 55 52 42 34 35 41 41 42 44 42 31 25 23 23 18 12 15 27 30 24 16 10 5 4 6 6 4 4 3 1 5 7
24 24 21 19 21 20 26 30 43 49 61 65 64 61 58 63 47 43 42 47 42 29 26 22 25 23 26 23 12 25 34 30 23 20 17 14 17 18 15 13 12 10 7 7
27 26 37 18 18 28 25 26 43 54 61 60 56 53 40 40 42 43 36 28 27 32 35 28 25 22 27 30 23 21 35 34 29 26 25 29 28 32 29 23 21 19 16 14
8 8 14 19 4 12 10 22 34 48 67 55 38 35 40 44 44 42 38 32 29 24 30 28 22 19 20 31 32 30 33 36 34 37 31 30 22 22 28 27 21 20 17 18
9 10 4 9 7 13 13 18 18 25 32 46 50 42 42 43 45 44 24 20 32 26 25 21 21 18 23 20 28 30 31 32 28 31 22 30 33 30 28 30 28 25 23 25
13 6 2 8 11 14 9 12 8 2 13 34 29 30 41 39 44 29 28 25 24 22 24 25 23 23 28 27 20 22 29 30 29 27 31 30 24 29 36 38 32 31 33 30
22 22 19 11 13 18 19 21 20 26 33 35 34 30 28 31 29 25 26 28 26 25 24 35 33 33 33 32 30 35 37 33 32 33 34 39 42 38 33 39 44 42 40 37
29 32 30 24 9 11 21 19 19 23 26 19 17 13 19 18 8 17 24 27 34 35 31 19 26 27 26 27 25 24 37 39 38 37 36 34 35 40 42 35 36 46 48 45
Wind_Direction_500mb
235 215 171 165 169 192 157 168 149 221 217 220 201 177 166 163 167 171 179 194 191 187 198 213 226 239 247 245 234 230 238 248 256 241 233 239 241 242 247 245 243 245 247 249
296 273 211 196 182 175 130 142 118 146 252 218 122 161 172 170 169 176 184 184 184 187 200 206 224 233 233 234 229 233 236 250 254 246 258 244 237 237 244 248 247 245 246 250
253 330 166 332 215 180 173 169 153 177 228 207 141 170 215 186 178 181 181 174 176 190 201 207 209 223 242 229 227 233 244 251 248 259 262 237 237 239 241 243 244 246 248 250
200 25 237 242 260 188 186 184 189 159 168 198 186 219 214 203 189 187 183 176 184 191 193 209 237 222 189 209 220 231 242 250 251 265 256 251 233 241 245 239 239 242 247 254
188 183 280 314 239 163 170 243 181 187 160 127 42 169 181 200 199 193 187 183 187 191 193 195 215 215 199 184 179 212 240 260 254 270 263 251 244 250 257 240 235 243 248 256
165 163 204 221 298 286 111 261 237 152 132 86 140 138 208 196 201 197 191 186 189 186 187 195 196 200 203 208 216 239 258 263 251 260 257 252 248 250 245 234 248 253 265 253
214 215 232 195 300 330 133 230 9 90 123 78 182 199 211 187 197 195 190 188 188 183 189 184 185 189 205 222 235 241 244 252 260 272 280 286 276 264 251 256 263 263 259 257
272 206 276 20 250 173 228 318 320 330 23 20 5 216 219 185 187 188 184 181 183 180 177 175 171 184 209 230 242 238 244 251 264 274 275 274 273 269 266 254 256 264 265 255
192 235 286 3 359 334 57 39 338 322 320 309 310 231 193 191 189 183 179 178 178 175 171 163 153 165 202 239 263 266 237 236 244 269 291 279 263 259 259 255 250 252 251 246
354 266 252 318 335 20 17 357 330 319 299 270 243 194 186 184 179 174 177 176 171 175 173 168 162 161 160 274 305 320 262 226 241 261 286 292 284 266 253 248 245 245 250 249
271 282 293 1 240 346 349 356 329 304 255 236 194 174 176 170 174 173 175 174 176 180 181 182 187 187 198 313 130 4 349 270 234 248 279 308 286 239 161 124 112 115 163 241
241 260 233 287 304 311 312 304 342 246 187 168 185 173 173 167 177 173 177 177 179 183 191 196 196 195 253 224 333 332 335 307 248 239 254 258 271 252 210 153 114 102 91 83
275 299 291 293 290 300 288 281 277 323 213 174 167 163 161 141 152 156 266 205 194 198 202 202 196 192 237 235 274 299 314 300 262 245 253 265 272 265 251 231 195 148 125 108
292 285 265 270 273 310 284 263 264 280 291 213 180 199 194 189 200 201 232 222 209 206 205 202 195 223 232 233 264 286 301 290 252 223 237 248 256 254 240 229 219 198 179 160
293 278 273 282 283 292 272 271 236 245 257 226 224 216 202 181 186 217 239 217 209 207 205 201 203 214 233 237 261 287 295 285 250 213 221 234 241 239 238 233 224 222 224 220
300 302 298 284 298 279 256 268 236 232 254 248 230 241 232 195 208 240 220 210 207 203 203 206 226 217 241 238 257 276 273 283 245 231 224 227 238 244 246 246 246 248 252 254
310 302 293 295 296 299 272 268 236 224 232 232 219 219 221 217 238 211 173 182 203 222 222 226 225 219 220 231 245 257 235 249 240 240 235 230 242 259 263 260 253 251 267 271
296 284 286 288 296 293 275 250 230 228 219 205 213 198 202 189 169 175 195 212 194 193 200 211 205 217 224 223 229 227 209 228 223 222 231 233 239 247 255 260 269 277 276 262
303 291 281 277 283 279 271 220 207 220 204 193 186 195 197 188 184 215 213 207 214 216 213 208 210 215 206 213 227 194 192 184 172 170 192 210 222 224 241 257 261 271 266 251
294 305 299 280 264 260 242 207 210 211 203 198 190 188 178 177 214 224 222 228 225 221 222 209 214 203 209 216 216 200 195 192 192 209 221 217 205 193 179 190 203 291 347 312
4 343 315 301 273 242 242 213 208 200 188 192 185 170 164 197 213 212 209 215 214 212 205 214 210 217 219 221 227 216 205 206 211 220 231 257 271 257 239 240 250 254 266 321
0 1 1 299 271 233 235 245 218 206 196 191 185 181 206 221 208 205 218 222 218 213 212 215 221 227 224 227 234 232 219 222 231 242 256 278 271 252 245 247 254 256 251 239
53 40 17 10 280 203 268 239 230 226 212 210 221 228 234 215 210 207 214 215 212 217 217 223 226 238 232 236 239 231 220 222 230 241 258 266 227 232 237 234 244 255 260 238
32 64 301 340 289 203 240 187 164 162 194 209 230 237 217 217 214 221 223 217 212 211 217 222 216 224 233 240 231 221 216 221 225 229 269 246 237 241 249 247 243 250 256 260
4 357 138 123 65 61 98 196 173 120 188 203 228 233 243 226 228 233 216 201 205 211 224 233 238 240 236 238 232 225 226 236 234 236 237 246 255 260 258 246 251 248 247 258
29 26 36 58 62 74 110 139 151 174 186 215 234 244 243 233 226 235 228 219 223 231 247 249 254 252 247 248 255 248 242 241 244 249 257 259 256 256 265 253 238 245 249 256
49 47 54 56 71 83 92 121 144 106 100 126 166 206 226 194 233 256 242 228 234 234 261 236 225 234 246 253 263 250 236 243 250 258 266 268 258 252 250 254 246 244 253 258
Wind_Speed_850mb
13 12 12 11 21 14 8 11 13 10 16 19 16 19 42 62 60 52 48 46 39 32 29 31 39 43 44 42 46 59 59 62 36 37 54 59 58 57 57 59 58 63 58 54
7 3 10 10 19 16 7 9 4 9 13 7 28 23 26 54 64 59 55 50 45 32 28 28 28 27 26 31 37 51 55 61 58 50 45 60 59 57 55 58 56 61 66 63
7 8 4 4 15 17 11 13 16 11 15 11 15 20 35 49 64 74 65 50 41 32 24 19 16 15 18 22 28 35 39 40 47 58 50 42 47 55 67 64 56 56 56 56
5 5 8 15 6 9 14 17 14 10 12 12 17 34 70 67 77 73 63 49 43 38 30 20 13 8 14 22 23 23 25 27 30 34 35 49 48 46 58 67 69 62 59 63
6 8 9 11 5 14 15 13 3 11 12 3 12 23 25 85 79 72 64 53 51 43 32 22 14 13 11 13 13 11 9 11 20 21 22 30 45 53 59 67 63 58 58 65
7 8 12 9 16 13 8 8 5 5 6 12 30 9 12 77 86 76 64 55 57 47 35 24 21 22 19 15 14 15 16 15 10 9 14 24 27 34 42 51 55 60 63 62
10 9 11 12 12 18 12 12 5 5 9 24 7 20 30 74 80 75 71 69 58 47 34 25 21 23 23 22 22 22 20 18 16 16 16 17 22 27 38 41 41 46 49 58
3 4 10 18 7 9 6 17 15 8 19 16 10 13 20 74 75 81 81 71 56 46 36 25 21 18 17 18 15 18 20 23 24 23 24 27 24 23 22 30 35 33 37 42
11 8 7 11 9 11 8 10 10 19 18 12 19 9 42 74 82 91 85 72 57 45 37 29 19 13 9 9 10 16 15 16 14 14 14 16 20 22 24 25 26 27 27 33
9 6 9 20 20 14 19 20 23 18 13 9 16 21 57 74 97 95 82 67 56 47 38 31 21 14 8 3 10 8 13 16 18 15 18 14 14 13 16 18 19 23 29 33
11 16 26 10 2 11 24 27 14 14 13 9 11 40 57 59 80 90 78 66 55 47 39 29 25 17 6 2 1 10 13 11 19 19 16 9 3 1 2 5 7 7 3 4
8 14 7 14 14 21 26 25 20 8 24 32 35 53 59 65 56 76 68 61 52 43 35 34 31 20 5 3 6 11 16 15 21 22 17 12 7 4 3 3 5 8 9 12
11 31 31 33 32 28 28 28 23 17 26 43 48 46 53 45 47 40 12 57 49 40 42 40 33 18 9 12 11 14 19 17 19 23 23 18 10 12 10 9 7 9 10 14
54 43 31 35 21 16 19 25 25 25 14 36 38 39 40 43 30 27 68 68 59 47 47 42 31 16 16 19 18 18 21 17 17 19 25 21 17 16 16 16 13 12 11 9
27 24 33 34 33 32 26 27 29 28 27 27 41 32 33 40 59 68 67 71 58 50 44 39 28 19 25 24 20 21 20 16 16 20 27 24 21 19 21 20 18 17 17 15
31 26 28 27 31 21 17 20 34 41 36 38 47 46 37 43 36 36 37 57 48 49 44 38 34 26 24 25 21 20 16 13 16 18 20 20 20 22 22 22 25 24 21 21
31 34 32 31 22 22 29 24 31 39 48 42 43 34 38 37 24 23 28 27 26 34 31 31 30 31 27 23 19 15 12 8 12 18 20 19 20 25 25 23 27 25 22 21
27 29 29 31 37 38 25 34 34 39 52 45 47 43 40 43 21 32 21 18 21 21 24 25 25 23 22 21 18 18 16 11 11 11 14 20 22 22 23 25 25 26 30 31
13 17 22 32 32 34 24 35 30 35 56 58 49 51 57 26 32 15 23 34 28 31 33 31 23 17 18 14 15 24 22 17 13 9 7 10 10 9 12 14 14 15 16 18
13 12 17 24 23 20 27 36 36 34 58 58 55 52 42 34 35 41 41 42 44 42 31 25 23 23 18 12 15 27 30 24 16 10 5 4 6 6 4 4 3 1 5 7
24 24 21 19 21 20 26 30 43 49 61 65 64 61 58 63 47 43 42 47 42 29 26 22 25 23 26 23 12 25 34 30 23 20 17 14 17 18 15 13 12 10 7 7
27 26 37 18 18 28 25 26 43 54 61 60 56 53 40 40 42 43 36 28 27 32 35 28 25 22 27 30 23 21 35 34 29 26 25 29 28 32 29 23 21 19 16 14
8 8 14 19 4 12 10 22 34 48 67 55 38 35 40 44 44 42 38 32 29 24 30 28 22 19 20 31 32 30 33 36 34 37 31 30 22 22 28 27 21 20 17 18
9 10 4 9 7 13 13 18 18 25 32 46 50 42 42 43 45 44 24 20 32 26 25 21 21 18 23 20 28 30 31 32 28 31 22 30 33 30 28 30 28 25 23 25
13 6 2 8 11 14 9 12 8 2 13 34 29 30 41 39 44 29 28 25 24 22 24 25 23 23 28 27 20 22 29 30 29 27 31 30 24 29 36 38 32 31 33 30
22 22 19 11 13 18 19 21 20 26 33 35 34 30 28 31 29 25 26 28 26 25 24 35 33 33 33 32 30 35 37 33 32 33 34 39 42 38 33 39 44 42 40 37
29 32 30 24 9 11 21 19 19 23 26 19 17 13 19 18 8 17 24 27 34 35 31 19 26 27 26 27 25 24 37 39 38 37 36 34 35 40 42 35 36 46 48 45
Wind_Direction_850mb
235 215 171 165 169 192 157 168 149 221 217 220 201 177 166 163 167 171 179 194 191 187 198 213 226 239 247 245 234 230 238 248 256 241 233 239 241 242 247 245 243 245 247 249
296 273 211 196 182 175 130 142 118 146 252 218 122 161 172 170 169 176 184 184 184 187 200 206 224 233 233 234 229 233 236 250 254 246 258 244 237 237 244 248 247 245 246 250
253 330 166 332 215 180 173 169 153 177 228 207 141 170 215 186 178 181 181 174 176 190 201 207 209 223 242 229 227 233 244 251 248 259 262 237 237 239 241 243 244 246 248 250
200 25 237 242 260 188 186 184 189 159 168 198 186 219 214 203 189 187 183 176 184 191 193 209 237 222 189 209 220 231 242 250 251 265 256 251 233 241 245 239 239 242 247 254
188 183 280 314 239 163 170 243 181 187 160 127 42 169 181 200 199 193 187 183 187 191 193 195 215 215 199 184 179 212 240 260 254 270 263 251 244 250 257 240 235 243 248 256
165 163 204 221 298 286 111 261 237 152 132 86 140 138 208 196 201 197 191 186 189 186 187 195 196 200 203 208 216 239 258 263 251 260 257 252 248 250 245 234 248 253 265 253
214 215 232 195 300 330 133 230 9 90 123 78 182 199 211 187 197 195 190 188 188 183 189 184 185 189 205 222 235 241 244 252 260 272 280 286 276 264 251 256 263 263 259 257
272 206 276 20 250 173 228 318 320 330 23 20 5 216 219 185 187 188 184 181 183 180 177 175 171 184 209 230 242 238 244 251 264 274 275 274 273 269 266 254 256 264 265 255
192 235 286 3 359 334 57 39 338 322 320 309 310 231 193 191 189 183 179 178 178 175 171 163 153 165 202 239 263 266 237 236 244 269 291 279 263 259 259 255 250 252 251 246
354 266 252 318 335 20 17 357 330 319 299 270 243 194 186 184 179 174 177 176 171 175 173 168 162 161 160 274 305 320 262 226 241 261 286 292 284 266 253 248 245 245 250 249
271 282 293 1 240 346 349 356 329 304 255 236 194 174 176 170 174 173 175 174 176 180 181 182 187 187 198 313 130 4 349 270 234 248 279 308 286 239 161 124 112 115 163 241
241 260 233 287 304 311 312 304 342 246 187 168 185 173 173 167 177 173 177 177 179 183 191 196 196 195 253 224 333 332 335 307 248 239 254 258 271 252 210 153 114 102 91 83
275 299 291 293 290 300 288 281 277 323 213 174 167 163 161 141 152 156 266 205 194 198 202 202 196 192 237 235 274 299 314 300 262 245 253 265 272 265 251 231 195 148 125 108
292 285 265 270 273 310 284 263 264 280 291 213 180 199 194 189 200 201 232 222 209 206 205 202 195 223 232 233 264 286 301 290 252 223 237 248 256 254 240 229 219 198 179 160
293 278 273 282 283 292 272 271 236 245 257 226 224 216 202 181 186 217 239 217 209 207 205 201 203 214 233 237 261 287 295 285 250 213 221 234 241 239 238 233 224 222 224 220
300 302 298 284 298 279 256 268 236 232 254 248 230 241 232 195 208 240 220 210 207 203 203 206 226 217 241 238 257 276 273 283 245 231 224 227 238 244 246 246 246 248 252 254
310 302 293 295 296 299 272 268 236 224 232 232 219 219 221 217 238 211 173 182 203 222 222 226 225 219 220 231 245 257 235 249 240 240 235 230 242 259 263 260 253 251 267 271
296 284 286 288 296 293 275 250 230 228 219 205 213 198 202 189 169 175 195 212 194 193 200 211 205 217 224 223 229 227 209 228 223 222 231 233 239 247 255 260 269 277 276 262
303 291 281 277 283 279 271 220 207 220 204 193 186 195 197 188 184 215 213 207 214 216 213 208 210 215 206 213 227 194 192 184 172 170 192 210 222 224 241 257 261 271 266 251
294 305 299 280 264 260 242 207 210 211 203 198 190 188 178 177 214 224 222 228 225 221 222 209 214 203 209 216 216 200 195 192 192 209 221 217 205 193 179 190 203 291 347 312
4 343 315 301 273 242 242 213 208 200 188 192 185 170 164 197 213 212 209 215 214 212 205 214 210 217 219 221 227 216 205 206 211 220 231 257 271 257 239 240 250 254 266 321
0 1 1 299 271 233 235 245 218 206 196 191 185 181 206 221 208 205 218 222 218 213 212 215 221 227 224 227 234 232 219 222 231 242 256 278 271 252 245 247 254 256 251 239
53 40 17 10 280 203 268 239 230 226 212 210 221 228 234 215 210 207 214 215 212 217 217 223 226 238 232 236 239 231 220 222 230 241 258 266 227 232 237 234 244 255 260 238
32 64 301 340 289 203 240 187 164 162 194 209 230 237 217 217 214 221 223 217 212 211 217 222 216 224 233 240 231 221 216 221 225 229 269 246 237 241 249 247 243 250 256 260
4 357 138 123 65 61 98 196 173 120 188 203 228 233 243 226 228 233 216 201 205 211 224 233 238 240 236 238 232 225 226 236 234 236 237 246 255 260 258 246 251 248 247 258
29 26 36 58 62 74 110 139 151 174 186 215 234 244 243 233 226 235 228 219 223 231 247 249 254 252 247 248 255 248 242 241 244 249 257 259 256 256 265 253 238 245 249 256
49 47 54 56 71 83 92 121 144 106 100 126 166 206 226 194 233 256 242 228 234 234 261 236 225 234 246 253 263 250 236 243 250 258 266 268 258 252 250 254 246 244 253 258